一网星座-0221星 (ONEWEB-0221 )

导读

ONEWEB-0221是英国OneWeb项目下的一颗低轨通信卫星,于北京时间2021年5月28日8时成功发射,是OneWeb卫星互联网星座组网过程中的组成部分,旨在为全球尤其是偏远地区提供高速、稳定的宽带互联网接入服务。该卫星属于OneWeb第一代组网卫星,推动了OneWeb全球卫星互联网覆盖的建设进程。

Basic Information
目录编号:
48789
目录名称:
ONEWEB-0221
国际标识:
2021-045Y
轨道中心:
EARTH
卫星名称:
一网星座-0221星
卫星全名:
一网星座-0221星 (ONEWEB-0221 )
卫星状态:
在轨 (已飞行1842 天)
发射日期:
2021-05-28 UTC
国别 :
英国 (GB)
星等 :
--
Orbit Information
数据来源 国际轨道数据 AOE轨道数据
星历时间 2026-06-13T02:09:29+0800
7小时前
查看轨道信息
2026-06-12T04:00:00+0800
1天前
查看轨道信息
半长轴 7579.911km 7579.9km
偏心率 0.0001787 0.000163
轨道倾角 87.901° 87.901°
近地点辐角 103.298° 103.617°
升交点赤经 260.072° 260.255°
平近点角 256.835° 206.506°
近地点 1200.419km 1200.527km
远地点 1203.129km 1202.999km
周期 109.460分钟 109.460分钟
每日圈数 13.155479 13.155507
Detailed Information
平衡模式:
三轴稳定
覆盖范围:
全球
运营商:
一网卫星公司
运营商所在国:
英国
制造商(研发单位):
一网卫星公司
制造商所在国:
英国
使用方式:
暂无
Satellite Introduction
OneWeb卫星网络由648颗重约125公斤的微型卫星组成,运行在1200公里的轨道上。 每颗卫星都能够提供至少每秒8千兆位的吞吐量,以使用其高吞吐量的Ku频段有效载荷为家庭和移动平台提供互联网接入。该卫星仍在工作。
2D Orbit Map
3D Orbit Map
Orbit Altitude Analysis Chart
Orbit Inclination Analysis Chart
Orbit Comprehensive Analysis Chart
View Comprehensive Chart